Anchorage Merrill, AK

2:46 PM AKDT on August 22, 2017 (GMT -0800)
Merrill

Weather History for PAMR - July, 2014

Change the Weather History Date:

Saturday, July 12, 2014

  Actual Average Record
Temperature  
Mean Temperature 60 °F -  
Max Temperature 69 °F 66 °F 80 °F (1993)
Min Temperature 55 °F 52 °F 50 °F (2012)
Degree Days  
Heating Degree Days 4    
Growing Degree Days 10 (Base 50)    
Moisture  
Dew Point 47 °F    
Average Humidity 60    
Maximum Humidity 77    
Minimum Humidity 44    
Precipitation  
Precipitation 0.00 in - - ()
Sea Level Pressure  
Sea Level Pressure 29.90 in    
Wind  
Wind Speed 4 mph (West)    
Max Wind Speed 9 mph    
Max Gust Speed -    
Visibility 10 miles    
Events      
Averages and records for this station are not official NWS values.
T = Trace of Precipitation, MM = Missing Value Source: NWS Daily Summary

Daily Weather History Graph

Daily Weather History Graph

Search for Another Location

Airport or City:

Trip Planner

Search our weather history database for the weather conditions in past years. The results will help you decide how hot, cold, wet, or windy it might be!

Date:

Astronomy

Jul. 12, 2014 Rise Set
Actual Time 4:45 AM AKDT 11:23 PM AKDT
Civil Twilight 3:04 AM AKDT 1:01 AM AKDT
Nautical Twilight Sun does not set Sun does not set
Astronomical Twilight Sun does not set Sun does not set
Moon 10:45 PM AKDT (7/12) 5:53 AM AKDT (7/12)
Length of Visible Light 21h 57m
Length of Day
18h 38m
Full, 100% of the Moon is Illuminated
Jul 12
Full
Jul 18
Last Quarter
Jul 26
New
Aug 3
First Quarter
Aug 10
Full

Hourly Weather History & Observations

Time (AKDT) Temp. Dew Point Humidity Pressure Visibility Wind Dir Wind Speed Gust Speed Precip Events Conditions
12:53 AM 61.0 °F 48.0 °F 62% 29.76 in 10.0 mi SSE 4.6 mph - 0.00 in   Overcast
1:53 AM 60.1 °F 46.9 °F 62% 29.78 in 10.0 mi Calm Calm - N/A   Overcast
2:53 AM 60.1 °F 48.0 °F 64% 29.79 in 10.0 mi SE 3.5 mph - N/A   Overcast
3:53 AM 60.1 °F 48.0 °F 64% 29.80 in 10.0 mi East 3.5 mph - 0.00 in   Overcast
4:53 AM 59.0 °F 48.9 °F 69% 29.82 in 10.0 mi SW 3.5 mph - N/A   Overcast
5:53 AM 57.9 °F 48.0 °F 70% 29.85 in 10.0 mi SW 5.8 mph - N/A   Mostly Cloudy
6:53 AM 55.9 °F 48.9 °F 77% 29.88 in 10.0 mi West 6.9 mph - N/A   Mostly Cloudy
6:57 AM 57.2 °F 48.2 °F 72% 29.88 in 10.0 mi West 9.2 mph - N/A   Mostly Cloudy
7:53 AM 57.0 °F 46.9 °F 69% 29.90 in 10.0 mi WNW 6.9 mph - N/A   Mostly Cloudy
8:53 AM 57.9 °F 46.9 °F 67% 29.91 in 10.0 mi Calm Calm - N/A   Overcast
9:53 AM 61.0 °F 46.9 °F 60% 29.91 in 10.0 mi North 3.5 mph - N/A   Mostly Cloudy
10:53 AM 59.0 °F 46.9 °F 64% 29.92 in 10.0 mi North 4.6 mph - N/A   Mostly Cloudy
11:53 AM 63.0 °F 48.9 °F 60% 29.92 in 10.0 mi North 3.5 mph - N/A   Mostly Cloudy
12:53 PM 64.0 °F 46.9 °F 54% 29.92 in 10.0 mi North 6.9 mph - N/A   Mostly Cloudy
1:53 PM 64.0 °F 46.0 °F 52% 29.92 in 10.0 mi Calm Calm - N/A   Mostly Cloudy
2:53 PM 66.0 °F 45.0 °F 47% 29.92 in 10.0 mi WNW 3.5 mph - N/A   Mostly Cloudy
3:53 PM 66.0 °F 46.0 °F 48% 29.92 in 10.0 mi WNW 6.9 mph - N/A   Overcast
4:53 PM 66.9 °F 44.1 °F 44% 29.92 in 10.0 mi NW 4.6 mph - N/A   Partly Cloudy
5:53 PM 64.9 °F 45.0 °F 48% 29.92 in 10.0 mi North 5.8 mph - N/A   Mostly Cloudy
6:53 PM 64.9 °F 44.1 °F 47% 29.94 in 10.0 mi SSW 9.2 mph - N/A   Mostly Cloudy
7:53 PM 62.1 °F 43.0 °F 50% 29.95 in 10.0 mi West 6.9 mph - N/A   Mostly Cloudy
8:53 PM 61.0 °F 44.1 °F 54% 29.96 in 10.0 mi West 5.8 mph - N/A   Mostly Cloudy
9:53 PM 60.1 °F 44.1 °F 55% 29.97 in 10.0 mi SW 3.5 mph - N/A   Clear
10:53 PM 57.9 °F 46.0 °F 65% 30.00 in 10.0 mi SSW 3.5 mph - N/A   Mostly Cloudy
11:53 PM 57.9 °F 46.9 °F 67% 30.02 in 10.0 mi SSW 5.8 mph - N/A   Overcast